Location: Limerick
(52.6800°N, 8.6400°W)
Time: 17:08:48
(UTC+00:00)

Amateur Radio Satellites - All Passes

Search period start: 11 February 2016 16:38
Search period end: 12 February 2016 16:38
Location: Limerick, 52.6800°N, 8.6400°W

Satellite Date Start Highest point End Downlink Frequencies (MHz)
Time Altitude Azimuth
KKS-1 11 Feb 16:53:56 16:58:16 53° 291° (WNW) 17:02:35 437.445
YUBILEINY 11 Feb 16:53:59 17:00:12 22° 287° (WNW) 17:06:25 435.215
MOZHAYETS 4 11 Feb 16:58:45 17:03:26 82° 106° (ESE) 17:08:05
BEESAT 2 11 Feb 16:59:49 17:02:14 16° 114° (ESE) 17:04:39 435.950
GOMX 1 11 Feb 17:03:28 17:06:34 16° 54° (NE) 17:09:34 467.674
Cosmos 2491 11 Feb 17:06:05 17:14:20 45° 294° (WNW) 17:22:39 435.465 / 435.565
ITUPSAT 1 11 Feb 17:11:58 17:13:56 12° 311° (NW) 17:15:53 437.325
BEESAT 11 Feb 17:20:03 17:21:11 11° 313° (NW) 17:22:18 436.000
O/OREOS (USA 219) 11 Feb 17:21:25 17:26:02 81° 60° (ENE) 17:30:38 437.305
AO-7 11 Feb 17:21:47 17:27:37 20° 274° (W) 17:33:30 29.400- 29.500
Cosmos 2504 11 Feb 17:25:26 17:33:39 48° 273° (W) 17:41:21 435.465 / 435.565
HORYU 2 11 Feb 17:27:07 17:29:53 16° 271° (W) 17:32:39 437.375
PCSat 11 Feb 17:27:41 17:32:15 26° 26° (NNE) 17:36:48 145.827
CUTE-I 11 Feb 17:31:04 17:36:22 67° 69° (ENE) 17:41:42 437.470
BRITE-PL 11 Feb 17:41:16 17:46:41 49° 67° (ENE) 17:51:52 437.365/2234.400
CUBESAT XI-V 11 Feb 17:44:05 17:48:19 32° 94° (E) 17:52:30 437.345
Cubesat XI-IV 11 Feb 17:45:17 17:50:38 84° 72° (ENE) 17:56:02 437.490
HO-68 11 Feb 17:54:45 18:00:29 27° 48° (NE) 18:06:15 435.675
AO-85 11 Feb 18:04:13 18:09:34 66° 42° (NE) 18:14:31 145.980
LilacSat-2 11 Feb 18:05:05 18:08:53 74° 257° (WSW) 18:12:43 437.200
BEESAT 3 11 Feb 18:08:18 18:12:17 81° 132° (SE) 18:16:18 437.485
RS-15 11 Feb 18:09:29 18:21:09 55° 23° (NNE) 18:33:11 29.354- 29.394
STARS 11 Feb 18:09:35 18:12:53 21° 302° (WNW) 18:16:11 437.465
ISS 11 Feb 18:09:54 18:13:09 66° 169° (S) 18:16:22 145.825
DOVE 4 11 Feb 18:12:41 18:16:53 29° 63° (ENE) 18:20:53 437.250
GONETS M04 11 Feb 18:24:34 18:31:53 28° 55° (NE) 18:39:11
COMPASS 1 11 Feb 18:30:35 18:31:55 11° 53° (NE) 18:33:16 437.405
KKS-1 11 Feb 18:33:21 18:33:55 10° 311° (NW) 18:34:29 437.445
Cosmos 2499 11 Feb 18:35:17 18:40:36 17° 42° (NE) 18:45:41 435.465 / 435.565
BEESAT 2 11 Feb 18:35:33 18:39:36 86° 313° (NW) 18:43:39 435.950
MOZHAYETS 4 11 Feb 18:36:55 18:40:04 18° 304° (NW) 18:43:12
GOMX 1 11 Feb 18:38:39 18:43:59 76° 72° (ENE) 18:49:00 467.674
CUTE 1.7 + AOD 2 11 Feb 18:42:13 18:45:27 22° 60° (ENE) 18:48:42 437.475
SEEDS 11 Feb 18:45:54 18:48:51 19° 59° (ENE) 18:51:49 437.485
CUBEBUG 2 11 Feb 18:53:26 18:54:35 11° 53° (NE) 18:55:45 437.445
CINEMA 3 11 Feb 18:55:09 18:58:49 25° 62° (ENE) 19:02:23 145.822/145.860
AAUSAT CUBESAT 2 11 Feb 18:56:12 18:58:43 16° 57° (ENE) 19:01:15 437.432
O/OREOS (USA 219) 11 Feb 19:02:01 19:04:51 16° 260° (W) 19:07:40 437.305
STRAND 1 11 Feb 19:05:02 19:09:27 28° 93° (E) 19:13:52 437.568
AIST 2 11 Feb 19:06:46 19:10:26 30° 120° (ESE) 19:14:06 435.215
Cosmos 2491 11 Feb 19:09:42 19:14:08 14° 323° (NW) 19:18:34 435.465 / 435.565
PCSat 11 Feb 19:11:03 19:16:32 75° 50° (NE) 19:21:57 145.827
CUTE-I 11 Feb 19:12:43 19:16:55 23° 270° (W) 19:21:09 437.470
BRITE-PL 11 Feb 19:20:09 19:25:16 35° 266° (W) 19:30:15 437.365/2234.400
CUBESAT XI-V 11 Feb 19:21:23 19:25:49 41° 294° (WNW) 19:30:12 437.345
Cosmos 2504 11 Feb 19:22:15 19:24:40 11° 297° (WNW) 19:27:02 435.465 / 435.565
CANX-2 11 Feb 19:26:28 19:30:36 56° 70° (ENE) 19:34:46 2200.000
Cubesat XI-IV 11 Feb 19:27:48 19:31:25 18° 272° (W) 19:35:04 437.490
ZACube-1 11 Feb 19:39:10 19:41:37 15° 57° (ENE) 19:44:05 437.345
HO-68 11 Feb 19:40:13 19:47:25 88° 68° (ENE) 19:54:41 435.675
AO-85 11 Feb 19:45:18 19:49:45 29° 244° (WSW) 19:53:55 145.980
ISS 11 Feb 19:46:16 19:49:30 67° 190° (S) 19:52:43 145.825
FUNcube-1 11 Feb 19:46:59 19:49:42 17° 58° (ENE) 19:52:24 145.935
BEESAT 3 11 Feb 19:47:08 19:50:30 25° 333° (NNW) 19:53:52 437.485
DOVE 4 11 Feb 19:49:35 19:54:26 49° 261° (W) 19:59:02 437.250
DELFI C3 11 Feb 19:56:30 19:58:52 15° 57° (ENE) 20:01:16 145.870
COMPASS 1 11 Feb 20:02:36 20:06:44 67° 72° (ENE) 20:10:55 437.405
PRISM 11 Feb 20:09:49 20:13:38 33° 97° (E) 20:17:25 437.425
BEESAT 2 11 Feb 20:14:45 20:18:03 23° 335° (NNW) 20:21:20 435.950
Oscar 11 11 Feb 20:15:42 20:19:41 38° 66° (ENE) 20:23:41 145.826/435.025
CUTE 1.7 + AOD 2 11 Feb 20:16:51 20:21:00 55° 260° (W) 20:25:11 437.475
GOMX 1 11 Feb 20:18:41 20:22:32 20° 271° (W) 20:26:16 467.674
SEEDS 11 Feb 20:20:00 20:24:10 65° 258° (WSW) 20:28:23 437.485
GONETS M04 11 Feb 20:21:12 20:30:03 89° 79° (E) 20:38:55
RS-15 11 Feb 20:22:38 20:34:42 80° 232° (SW) 20:47:02 29.354- 29.394
UWE-3 11 Feb 20:23:24 20:27:26 46° 69° (ENE) 20:31:27 435.000/436.395/437.385
CUBEBUG 2 11 Feb 20:26:15 20:30:29 65° 72° (ENE) 20:34:39 437.445
Cosmos 2499 11 Feb 20:27:47 20:36:12 54° 70° (ENE) 20:43:57 435.465 / 435.565
AAUSAT CUBESAT 2 11 Feb 20:29:33 20:33:42 81° 254° (WSW) 20:37:55 437.432
CINEMA 3 11 Feb 20:31:24 20:35:48 48° 261° (W) 20:40:02 145.822/145.860
STRAND 1 11 Feb 20:43:54 20:48:56 54° 293° (WNW) 20:53:57 437.568
AIST 2 11 Feb 20:44:43 20:48:47 50° 320° (NW) 20:52:53 435.215
AIST 1 11 Feb 20:50:03 20:53:45 26° 67° (ENE) 20:57:24
PCSat 11 Feb 20:55:07 20:59:26 24° 250° (WSW) 21:03:44 145.827
CANX-2 11 Feb 21:03:44 21:06:50 19° 270° (W) 21:09:56 2200.000
ZACube-1 11 Feb 21:13:13 21:17:24 82° 257° (WSW) 21:21:35 437.345
HUMSAT D 11 Feb 21:16:39 21:20:26 38° 67° (ENE) 21:24:15 437.325/437.525
FUNcube-1 11 Feb 21:21:21 21:25:31 71° 258° (WSW) 21:29:41 145.935
50 SAT 11 Feb 21:22:45 21:24:28 13° 56° (ENE) 21:26:12 437.505
ISS 11 Feb 21:22:51 21:25:38 26° 209° (SSW) 21:28:26 145.825
BEESAT 3 11 Feb 21:27:14 21:29:32 15° 356° (N) 21:31:48 437.485
DELFI C3 11 Feb 21:29:18 21:33:17 77° 257° (WSW) 21:37:20 145.870
HO-68 11 Feb 21:30:29 21:36:04 24° 272° (W) 21:41:41 435.675
VELOX 1 11 Feb 21:32:28 21:35:25 18° 56° (NE) 21:38:25 145.980
COMPASS 1 11 Feb 21:40:10 21:42:47 16° 272° (W) 21:45:27 437.405
PRISM 11 Feb 21:45:12 21:48:59 33° 296° (WNW) 21:52:43 437.425
AISAT 11 Feb 21:48:43 21:52:17 24° 60° (ENE) 21:55:52 437.250
UKube-1 11 Feb 21:51:29 21:54:53 23° 59° (ENE) 21:58:17 .
Oscar 11 11 Feb 21:52:07 21:55:54 30° 266° (W) 21:59:44 145.826/435.025
BEESAT 2 11 Feb 21:54:56 21:57:15 15° 358° (N) 21:59:35 435.950
SPROUT 11 Feb 22:00:04 22:01:21 11° 52° (NE) 22:02:38 437.525
UWE-3 11 Feb 22:00:49 22:04:10 23° 268° (W) 22:07:30 435.000/436.395/437.385
CUBEBUG 1 11 Feb 22:02:53 22:06:32 26° 61° (ENE) 22:10:12 437.445
CUBEBUG 2 11 Feb 22:04:48 22:07:34 17° 271° (W) 22:10:19 437.445
DX 1 11 Feb 22:06:09 22:10:05 33° 64° (ENE) 22:14:03 434.975-435.025
AAUSAT CUBESAT 2 11 Feb 22:09:01 22:09:58 11° 276° (W) 22:10:54 437.432
ESTCUBE 1 11 Feb 22:17:08 22:21:24 42° 66° (ENE) 22:25:43 437.505/2401.250
ANTELSAT 11 Feb 22:18:45 22:22:16 24° 93° (E) 22:25:49 437.575/2403.000
GONETS M04 11 Feb 22:19:01 22:25:48 26° 283° (WNW) 22:32:37
Cosmos 2499 11 Feb 22:21:19 22:29:13 44° 274° (W) 22:36:33 435.465 / 435.565
TIGRISAT 11 Feb 22:24:54 22:28:32 26° 94° (E) 22:32:12 435.000
STRAND 1 11 Feb 22:24:59 22:27:04 12° 314° (NW) 22:29:09 437.568
AIST 2 11 Feb 22:25:10 22:28:11 19° 343° (NNW) 22:31:13 435.215
AIST 1 11 Feb 22:27:25 22:31:32 42° 267° (W) 22:35:36
RS-15 11 Feb 22:35:53 22:45:30 29° 258° (WSW) 22:55:16 29.354- 29.394
HUMSAT D 11 Feb 22:52:45 22:56:13 26° 266° (W) 22:59:42 437.325/437.525
ZACube-1 11 Feb 22:53:28 22:54:26 11° 275° (W) 22:55:24 437.345
50 SAT 11 Feb 22:54:14 22:57:57 85° 254° (WSW) 23:01:43 437.505
POLYITAN 1 11 Feb 23:01:03 23:03:52 17° 90° (E) 23:06:40 437.675
QB50P2 11 Feb 23:01:32 23:04:27 18° 90° (E) 23:07:20 145.880/145.840
BEESAT 3 11 Feb 23:05:43 23:08:41 19° 20° (NNE) 23:11:37 437.485
VELOX 1 11 Feb 23:06:55 23:11:24 80° 254° (WSW) 23:15:54 145.980
UNISAT 6 11 Feb 23:09:53 23:14:13 68° 103° (ESE) 23:18:37 437.425
Cosmos 2491 11 Feb 23:15:37 23:19:17 13° 34° (NE) 23:22:56 435.465 / 435.565
AISAT 11 Feb 23:24:08 23:28:32 54° 260° (W) 23:32:55 437.250
UKube-1 11 Feb 23:26:23 23:30:39 55° 259° (WSW) 23:34:57 .
POPSAT HIP 1 11 Feb 23:30:14 23:33:58 30° 95° (E) 23:37:42 437.405
SPROUT 11 Feb 23:32:16 23:36:31 63° 71° (ENE) 23:40:47 437.525
BEESAT 2 11 Feb 23:33:24 23:36:31 21° 22° (NNE) 23:39:38 435.950
NANOSAT C BR1 11 Feb 23:33:41 23:37:29 32° 96° (E) 23:41:15 145.865
ITUPSAT 1 11 Feb 23:33:48 23:34:57 11° 47° (NE) 23:36:05 437.325
DUCHIFAT 1 11 Feb 23:34:15 23:38:00 31° 95° (E) 23:41:44 145.980
TISAT 1 11 Feb 23:34:31 23:38:13 30° 64° (ENE) 23:41:55 437.305
CUBEBUG 1 11 Feb 23:38:18 23:42:37 49° 260° (W) 23:46:57 437.445
BEESAT 11 Feb 23:40:09 23:42:00 12° 49° (NE) 23:43:52 436.000
DX 1 11 Feb 23:42:15 23:46:17 35° 263° (W) 23:50:21 434.975-435.025
QB50P1 11 Feb 23:42:33 23:46:33 40° 98° (E) 23:50:30 145.935-145.965
ESTCUBE 1 11 Feb 23:54:25 23:58:22 29° 266° (W) 00:02:22 437.505/2401.250
ANTELSAT 11 Feb 23:55:03 23:59:14 48° 291° (WNW) 00:03:28 437.575/2403.000
TIGRISAT 12 Feb 00:01:19 00:05:25 44° 292° (WNW) 00:09:35 435.000
AIST 2 12 Feb 00:05:31 00:08:09 16° 7° (N) 00:10:47 435.215
DANDE 12 Feb 00:15:46 00:18:43 12° 69° (ENE) 00:21:39 436.750
BUGSAT 1 12 Feb 00:27:26 00:31:27 56° 101° (E) 00:35:24 437.445
SWISSCUBE 12 Feb 00:29:56 00:34:00 29° 61° (ENE) 00:38:07 437.505
POLYITAN 1 12 Feb 00:35:57 00:40:08 64° 288° (WNW) 00:44:17 437.675
QB50P2 12 Feb 00:36:30 00:40:41 62° 289° (WNW) 00:44:50 145.880/145.840
BEESAT 3 12 Feb 00:43:14 00:47:12 59° 43° (NE) 00:51:06 437.485
VELOX 1 12 Feb 00:47:02 00:48:39 12° 275° (W) 00:50:17 145.980
UNISAT 6 12 Feb 00:47:29 00:50:33 19° 302° (WNW) 00:53:38 437.425
Oscar 19 12 Feb 00:56:48 01:00:19 18° 88° (E) 01:03:50 437.125/150
CUSAT 1 12 Feb 01:02:47 01:09:56 35° 87° (E) 01:16:44 437.405
JAS-2 12 Feb 01:03:21 01:06:52 16° 83° (E) 01:10:12 435.910
POPSAT HIP 1 12 Feb 01:06:00 01:09:51 35° 294° (WNW) 01:13:40 437.405
ITUPSAT 1 12 Feb 01:07:08 01:11:46 50° 67° (ENE) 01:16:25 437.325
NANOSAT C BR1 12 Feb 01:09:28 01:13:15 33° 295° (WNW) 01:17:02 145.865
TISAT 1 12 Feb 01:09:55 01:13:50 37° 263° (W) 01:17:46 437.305
SPROUT 12 Feb 01:09:57 01:12:55 18° 270° (W) 01:15:54 437.525
DUCHIFAT 1 12 Feb 01:09:58 01:13:46 34° 295° (WNW) 01:17:33 145.980
BEESAT 2 12 Feb 01:11:03 01:15:06 70° 45° (NE) 01:19:04 435.950
Cosmos 2491 12 Feb 01:11:17 01:19:24 40° 63° (ENE) 01:27:29 435.465 / 435.565
BEESAT 12 Feb 01:14:12 01:18:52 58° 69° (ENE) 01:23:35 436.000
QB50P1 12 Feb 01:18:38 01:22:14 28° 297° (WNW) 01:25:49 145.935-145.965
Gurwin Techsat 1B 12 Feb 01:43:43 01:47:33 20° 88° (E) 01:51:22 435.225
AIST 2 12 Feb 01:44:07 01:47:50 30° 31° (NNE) 01:51:33 435.215
DANDE 12 Feb 01:52:04 01:59:44 46° 90° (E) 02:07:37 436.750
STARS 12 Feb 02:00:12 02:03:14 19° 57° (ENE) 02:06:16 437.465
BUGSAT 1 12 Feb 02:03:33 02:06:31 20° 301° (WNW) 02:09:28 437.445
SWISSCUBE 12 Feb 02:07:00 02:11:38 49° 260° (W) 02:16:18 437.505
YUBILEINY 12 Feb 02:09:34 02:16:30 27° 77° (ENE) 02:23:28 435.215
ITAMSAT 1 12 Feb 02:10:05 02:13:36 18° 88° (E) 02:17:05 435.822/435.867
POLYITAN 1 12 Feb 02:13:59 02:15:09 11° 308° (NW) 02:16:20 437.675
QB50P2 12 Feb 02:14:41 02:15:41 11° 309° (NW) 02:16:41 145.880/145.840
KKS-1 12 Feb 02:21:16 02:25:29 42° 66° (ENE) 02:29:42 437.445
BEESAT 3 12 Feb 02:21:30 02:24:39 23° 242° (WSW) 02:27:47 437.485
MOZHAYETS 4 12 Feb 02:30:22 02:34:03 24° 60° (ENE) 02:37:46
Oscar 19 12 Feb 02:35:08 02:40:18 80° 288° (WNW) 02:45:25 437.125/150
CUSAT 1 12 Feb 02:43:42 02:51:52 71° 286° (WNW) 02:59:32 437.405
ITUPSAT 1 12 Feb 02:45:50 02:49:52 27° 267° (W) 02:53:55 437.325
JAS-2 12 Feb 02:47:09 02:53:02 90° 291° (WNW) 02:58:22 435.910
BEESAT 2 12 Feb 02:49:42 02:52:35 19° 244° (WSW) 02:55:27 435.950
BEESAT 12 Feb 02:53:16 02:57:02 23° 268° (W) 03:00:50 436.000
PHONESAT 2.4 12 Feb 03:05:15 03:05:43 10° 182° (S) 03:06:11 2401.200-2431.200
Cosmos 2491 12 Feb 03:08:12 03:16:48 64° 267° (W) 03:25:25 435.465 / 435.565
CUBESAT XI-V 12 Feb 03:19:15 03:20:59 12° 50° (NE) 03:22:42 437.345
AO-7 12 Feb 03:20:19 03:27:07 27° 90° (E) 03:33:51 29.400- 29.500
AIST 2 12 Feb 03:22:32 03:26:39 61° 232° (SW) 03:30:42 435.215
Gurwin Techsat 1B 12 Feb 03:22:48 03:28:09 79° 288° (WNW) 03:33:28 435.225
DANDE 12 Feb 03:34:31 03:42:37 58° 291° (WNW) 03:50:54 436.750
STARS 12 Feb 03:34:45 03:39:09 74° 255° (WSW) 03:43:35 437.465
ITAMSAT 1 12 Feb 03:48:29 03:53:46 85° 288° (WNW) 03:59:01 435.822/435.867
KKS-1 12 Feb 03:58:20 04:02:13 28° 266° (W) 04:06:05 437.445
YUBILEINY 12 Feb 04:03:27 04:12:17 86° 280° (W) 04:21:13 435.215
MOZHAYETS 4 12 Feb 04:06:27 04:10:57 55° 260° (W) 04:15:30
Oscar 19 12 Feb 04:15:38 04:18:54 17° 308° (NW) 04:22:08 437.125/150
Cosmos 2504 12 Feb 04:17:00 04:24:42 36° 82° (E) 04:32:32 435.465 / 435.565
CUSAT 1 12 Feb 04:29:16 04:35:26 23° 307° (NW) 04:41:13 437.405
JAS-2 12 Feb 04:33:10 04:37:20 20° 310° (NW) 04:41:14 435.910
M-CUBED/EXP-1 PRIME 12 Feb 04:40:52 04:43:46 26° 103° (ESE) 04:46:48 437.505
AUBIESAT-1 12 Feb 04:48:39 04:51:38 27° 103° (ESE) 04:54:44 437.475
STRAND 1 12 Feb 04:50:23 04:53:19 16° 50° (NE) 04:56:16 437.568
CUBESAT XI-V 12 Feb 04:52:49 04:57:27 59° 70° (ENE) 05:02:07 437.345
SO-50 12 Feb 05:02:46 05:07:19 39° 122° (ESE) 05:11:56 436.795
Gurwin Techsat 1B 12 Feb 05:03:54 05:07:20 18° 309° (NW) 05:10:46 435.225
Cosmos 2491 12 Feb 05:06:57 05:11:51 17° 291° (WNW) 05:16:46 435.465 / 435.565
HORYU 2 12 Feb 05:09:46 05:14:13 64° 103° (ESE) 05:18:39 437.375
AO-7 12 Feb 05:12:33 05:20:58 88° 292° (WNW) 05:29:17 29.400- 29.500
STARS 12 Feb 05:15:30 05:16:21 10° 275° (W) 05:17:12 437.465
DANDE 12 Feb 05:21:32 05:27:28 21° 314° (NW) 05:33:20 436.750
ITAMSAT 1 12 Feb 05:29:00 05:32:33 19° 308° (NW) 05:36:05 435.822/435.867
CUTE-I 12 Feb 05:43:01 05:46:30 17° 87° (E) 05:49:58 437.470
Cubesat XI-IV 12 Feb 05:57:02 06:01:11 22° 90° (E) 06:05:18 437.490
YUBILEINY 12 Feb 06:03:19 06:10:31 27° 306° (NW) 06:17:49 435.215
Cosmos 2504 12 Feb 06:08:50 06:17:34 70° 286° (WNW) 06:26:30 435.465 / 435.565
M-CUBED/EXP-1 PRIME 12 Feb 06:15:31 06:18:29 29° 300° (WNW) 06:21:32 437.505
AUBIESAT-1 12 Feb 06:23:16 06:26:16 29° 300° (WNW) 06:29:22 437.475
STRAND 1 12 Feb 06:26:34 06:31:39 70° 70° (ENE) 06:36:48 437.568
CUBESAT XI-V 12 Feb 06:31:32 06:35:13 22° 270° (W) 06:38:55 437.345
GOMX 1 12 Feb 06:36:32 06:38:37 13° 84° (E) 06:40:37 467.674
SO-50 12 Feb 06:42:57 06:47:47 52° 322° (NW) 06:52:38 436.795
HORYU 2 12 Feb 06:47:06 06:50:25 21° 302° (WNW) 06:53:44 437.375
HO-68 12 Feb 07:04:03 07:06:37 12° 79° (E) 07:09:10 435.675
PRISM 12 Feb 07:04:44 07:08:48 53° 69° (ENE) 07:12:55 437.425
AO-7 12 Feb 07:05:55 07:12:52 31° 316° (NW) 07:19:47 29.400- 29.500
LilacSat-2 12 Feb 07:06:56 07:10:45 74° 103° (ESE) 07:14:32 437.200
BRITE-PL 12 Feb 07:18:52 07:23:40 57° 100° (E) 07:28:03 437.365/2234.400
CUTE-I 12 Feb 07:21:53 07:27:19 90° 318° (NW) 07:32:43 437.470
GONETS M04 12 Feb 07:36:02 07:42:16 23° 74° (ENE) 07:48:31
Cubesat XI-IV 12 Feb 07:36:25 07:41:48 72° 290° (WNW) 07:47:10 437.490
O/OREOS (USA 219) 12 Feb 07:40:07 07:43:57 28° 106° (ESE) 07:47:50 437.305
DOVE 4 12 Feb 07:42:51 07:46:32 27° 93° (E) 07:50:06 437.250
CUTE 1.7 + AOD 2 12 Feb 07:56:30 07:59:29 18° 89° (E) 08:02:28 437.475
SEEDS 12 Feb 07:59:07 08:01:37 15° 88° (E) 08:04:06 437.485
Cosmos 2504 12 Feb 08:06:14 08:12:51 23° 311° (NW) 08:19:32 435.465 / 435.565
STRAND 1 12 Feb 08:07:31 08:11:22 21° 270° (W) 08:15:15 437.568
AAUSAT CUBESAT 2 12 Feb 08:08:00 08:09:29 12° 85° (E) 08:10:57 437.432
GOMX 1 12 Feb 08:12:58 08:17:30 87° 292° (WNW) 08:21:46 467.674
CINEMA 3 12 Feb 08:20:14 08:23:38 24° 93° (E) 08:27:02 145.822/145.860
SO-50 12 Feb 08:25:21 08:29:19 23° 346° (NNW) 08:33:15 436.795
UNISAT 6 12 Feb 08:39:32 08:42:32 19° 58° (ENE) 08:45:31 437.425
CANX-2 12 Feb 08:41:15 08:45:27 50° 100° (E) 08:49:38 2200.000
PRISM 12 Feb 08:41:19 08:44:28 20° 268° (W) 08:47:38 437.425
LilacSat-2 12 Feb 08:42:29 08:44:36 15° 302° (WNW) 08:46:43 437.200
HO-68 12 Feb 08:48:59 08:56:04 55° 101° (E) 09:03:05 435.675
ZACube-1 12 Feb 08:56:57 08:58:55 13° 87° (E) 09:00:51 437.345
BRITE-PL 12 Feb 08:57:55 09:01:47 24° 302° (WNW) 09:05:25 437.365/2234.400
AO-7 12 Feb 08:59:21 09:03:06 14° 341° (NNW) 09:06:51 29.400- 29.500
CUTE-I 12 Feb 09:02:54 09:06:43 20° 307° (NW) 09:10:33 437.470
DELFI C3 12 Feb 09:04:25 09:04:41 10° 85° (E) 09:04:58 145.870
FUNcube-1 12 Feb 09:04:25 09:06:48 15° 88° (E) 09:09:10 145.935
QB50P1 12 Feb 09:08:21 09:09:39 11° 52° (NE) 09:10:57 145.935-145.965
Cosmos 2499 12 Feb 09:10:58 09:18:49 38° 83° (E) 09:26:40 435.465 / 435.565
COMPASS 1 12 Feb 09:15:05 09:19:16 57° 101° (E) 09:23:27 437.405
Cubesat XI-IV 12 Feb 09:17:45 09:21:03 17° 310° (NW) 09:24:20 437.490
O/OREOS (USA 219) 12 Feb 09:18:51 09:23:11 46° 307° (NW) 09:27:35 437.305
DOVE 4 12 Feb 09:20:25 09:24:24 38° 294° (WNW) 09:28:16 437.250
ANTELSAT 12 Feb 09:23:12 09:27:14 42° 67° (ENE) 09:31:16 437.575/2403.000
AIST 1 12 Feb 09:28:21 09:29:43 11° 80° (E) 09:31:06
GONETS M04 12 Feb 09:29:05 09:37:46 82° 98° (E) 09:46:33
TIGRISAT 12 Feb 09:29:11 09:33:16 45° 68° (ENE) 09:37:20 435.000
CUTE 1.7 + AOD 2 12 Feb 09:31:30 09:35:46 63° 288° (WNW) 09:40:00 437.475
Oscar 11 12 Feb 09:32:44 09:36:43 33° 96° (E) 09:40:40 145.826/435.025
SEEDS 12 Feb 09:33:35 09:37:52 76° 287° (WNW) 09:42:07 437.485
AAUSAT CUBESAT 2 12 Feb 09:41:26 09:45:41 85° 107° (ESE) 09:49:54 437.432
UWE-3 12 Feb 09:43:05 09:47:07 44° 99° (E) 09:51:13 435.000/436.395/437.385
CUBEBUG 2 12 Feb 09:47:24 09:51:34 65° 102° (ESE) 09:55:48 437.445
BUGSAT 1 12 Feb 09:49:45 09:51:57 14° 55° (NE) 09:54:07 437.445
GOMX 1 12 Feb 09:52:24 09:54:54 15° 307° (NW) 09:57:21 467.674
CINEMA 3 12 Feb 09:57:04 10:01:00 43° 292° (WNW) 10:04:57 145.822/145.860
POLYITAN 1 12 Feb 09:59:07 10:02:44 28° 63° (ENE) 10:06:22 437.675
QB50P2 12 Feb 09:59:35 10:03:16 29° 63° (ENE) 10:06:56 145.880/145.840
PCSat 12 Feb 10:00:20 10:04:00 19° 107° (ESE) 10:07:40 145.827
AO-85 12 Feb 10:04:08 10:08:49 31° 117° (ESE) 10:13:35 145.980
SO-50 12 Feb 10:07:31 10:11:21 22° 10° (N) 10:15:08 436.795
UNISAT 6 12 Feb 10:14:35 10:18:51 67° 257° (WSW) 10:23:07 437.425
CANX-2 12 Feb 10:17:37 10:21:04 24° 299° (WNW) 10:24:31 2200.000
POPSAT HIP 1 12 Feb 10:28:12 10:32:17 49° 69° (ENE) 10:36:22 437.405
HUMSAT D 12 Feb 10:29:32 10:33:18 32° 96° (E) 10:37:05 437.325/437.525
NANOSAT C BR1 12 Feb 10:31:18 10:35:24 51° 69° (ENE) 10:39:30 145.865
ZACube-1 12 Feb 10:31:35 10:35:49 87° 285° (WNW) 10:40:06 437.345
DUCHIFAT 1 12 Feb 10:31:38 10:35:43 50° 69° (ENE) 10:39:48 145.980
DELFI C3 12 Feb 10:36:15 10:40:20 79° 104° (ESE) 10:44:23 145.870
HO-68 12 Feb 10:36:59 10:43:41 43° 303° (WNW) 10:50:21 435.675
FUNcube-1 12 Feb 10:39:23 10:43:35 77° 287° (WNW) 10:47:52 145.935
QB50P1 12 Feb 10:40:28 10:44:40 65° 71° (ENE) 10:48:51 145.935-145.965
Oscar 19 12 Feb 10:44:16 10:45:44 11° 45° (NE) 10:47:10 437.125/150
DANDE 12 Feb 10:44:57 10:49:02 15° 38° (NE) 10:52:43 436.750
AO-7 12 Feb 10:49:44 10:52:27 12° 9° (N) 10:55:09 29.400- 29.500
COMPASS 1 12 Feb 10:51:20 10:54:32 21° 300° (WNW) 10:57:44 437.405
VELOX 1 12 Feb 10:52:43 10:54:53 13° 86° (E) 10:57:02 145.980
RS-15 12 Feb 10:54:21 11:04:03 36° 107° (ESE) 11:14:09 29.354- 29.394
ANTELSAT 12 Feb 11:00:31 11:04:08 26° 266° (W) 11:07:45 437.575/2403.000
O/OREOS (USA 219) 12 Feb 11:01:41 11:03:47 13° 330° (NNW) 11:05:53 437.305
AIST 1 12 Feb 11:02:09 11:06:33 82° 100° (E) 11:11:00
Cosmos 2499 12 Feb 11:02:41 11:11:30 68° 286° (WNW) 11:20:21 435.465 / 435.565
TIGRISAT 12 Feb 11:06:42 11:10:11 24° 267° (W) 11:13:41 435.000
UKube-1 12 Feb 11:08:30 11:11:18 17° 89° (E) 11:14:03 .
Oscar 11 12 Feb 11:08:55 11:12:52 34° 295° (WNW) 11:16:48 145.826/435.025
AISAT 12 Feb 11:09:05 11:12:17 19° 90° (E) 11:15:29 437.250
CUTE 1.7 + AOD 2 12 Feb 11:09:34 11:10:48 11° 308° (NW) 11:12:02 437.475
SEEDS 12 Feb 11:10:58 11:12:53 13° 306° (NW) 11:14:47 437.485
AAUSAT CUBESAT 2 12 Feb 11:18:10 11:20:38 15° 304° (WNW) 11:23:06 437.432
UWE-3 12 Feb 11:20:00 11:23:26 25° 297° (WNW) 11:26:55 435.000/436.395/437.385
JAS-2 12 Feb 11:21:09 11:26:27 23° 52° (NE) 11:31:22 435.910
CUBEBUG 1 12 Feb 11:21:27 11:24:48 21° 91° (E) 11:28:06 437.445
BUGSAT 1 12 Feb 11:22:33 11:26:45 87° 75° (ENE) 11:30:55 437.445
DX 1 12 Feb 11:24:22 11:28:04 26° 94° (E) 11:31:42 434.975-435.025
CUBEBUG 2 12 Feb 11:24:55 11:27:50 19° 301° (WNW) 11:30:46 437.445
GONETS M04 12 Feb 11:28:14 11:35:43 31° 303° (WNW) 11:43:17
CUSAT 1 12 Feb 11:33:30 11:39:00 30° 57° (ENE) 11:43:21 437.405
Gurwin Techsat 1B 12 Feb 11:34:23 11:36:35 13° 46° (NE) 11:38:47 435.225
POLYITAN 1 12 Feb 11:34:30 11:38:28 39° 262° (W) 11:42:28 437.675
QB50P2 12 Feb 11:35:02 11:39:00 38° 263° (W) 11:42:58 145.880/145.840
ESTCUBE 1 12 Feb 11:40:12 11:44:31 39° 98° (E) 11:48:46 437.505/2401.250
PCSat 12 Feb 11:41:14 11:46:40 87° 127° (SE) 11:52:09 145.827
AO-85 12 Feb 11:43:36 11:49:05 70° 318° (NW) 11:54:34 145.980
SO-50 12 Feb 11:48:18 11:53:01 43° 34° (NE) 11:57:35 436.795
50 SAT 12 Feb 11:53:47 11:57:33 56° 101° (E) 12:01:18 437.505
ITAMSAT 1 12 Feb 11:58:27 12:00:02 11° 44° (NE) 12:01:38 435.822/435.867
POPSAT HIP 1 12 Feb 12:05:01 12:08:21 22° 268° (W) 12:11:41 437.405
HUMSAT D 12 Feb 12:05:12 12:08:58 33° 294° (WNW) 12:12:45 437.325/437.525
NANOSAT C BR1 12 Feb 12:08:13 12:11:27 21° 268° (W) 12:14:42 145.865
DUCHIFAT 1 12 Feb 12:08:26 12:11:43 22° 268° (W) 12:15:00 145.980
ZACube-1 12 Feb 12:09:19 12:11:32 14° 305° (NW) 12:13:45 437.345
YUBILEINY 12 Feb 12:09:53 12:16:19 21° 48° (NE) 12:22:42 435.215
DELFI C3 12 Feb 12:12:20 12:14:45 15° 303° (WNW) 12:17:08 145.870
FUNcube-1 12 Feb 12:17:21 12:19:12 13° 306° (NW) 12:21:02 145.935
QB50P1 12 Feb 12:18:05 12:20:54 17° 270° (W) 12:23:43 145.935-145.965
Oscar 19 12 Feb 12:18:58 12:23:55 47° 66° (ENE) 12:28:52 437.125/150
HO-68 12 Feb 12:26:03 12:29:40 15° 326° (NW) 12:33:17 435.675
DANDE 12 Feb 12:27:08 12:34:19 48° 65° (ENE) 12:39:53 436.750
VELOX 1 12 Feb 12:27:35 12:32:03 89° 286° (WNW) 12:36:27 145.980
AO-7 12 Feb 12:36:13 12:42:15 23° 36° (NE) 12:48:17 29.400- 29.500
AIST 1 12 Feb 12:42:07 12:44:48 16° 300° (WNW) 12:47:29
UKube-1 12 Feb 12:43:31 12:47:51 70° 289° (WNW) 12:52:08 .
AISAT 12 Feb 12:44:49 12:49:12 61° 290° (WNW) 12:53:32 437.250
TISAT 1 12 Feb 12:48:05 12:51:25 23° 92° (E) 12:54:44 437.305
SPROUT 12 Feb 12:48:22 12:52:34 53° 100° (E) 12:56:45 437.525
CUBEBUG 1 12 Feb 12:57:08 13:01:27 55° 290° (WNW) 13:05:41 437.445
Cosmos 2499 12 Feb 13:00:00 13:06:32 22° 311° (NW) 13:13:03 435.465 / 435.565
DX 1 12 Feb 13:00:16 13:04:27 44° 293° (WNW) 13:08:34 434.975-435.025
BUGSAT 1 12 Feb 13:00:55 13:02:44 13° 273° (W) 13:04:34 437.445
JAS-2 12 Feb 13:03:19 13:10:46 79° 71° (ENE) 13:17:25 435.910
RS-15 12 Feb 13:03:53 13:15:15 87° 314° (NW) 13:27:18 29.354- 29.394
Gurwin Techsat 1B 12 Feb 13:10:18 13:15:27 53° 67° (ENE) 13:20:38 435.225
CUSAT 1 12 Feb 13:15:48 13:21:47 53° 266° (W) 13:26:16 437.405
ESTCUBE 1 12 Feb 13:17:13 13:21:15 32° 297° (WNW) 13:25:16 437.505/2401.250
AO-85 12 Feb 13:25:44 13:30:30 29° 340° (NNW) 13:35:12 145.980
PCSat 12 Feb 13:25:58 13:30:44 30° 330° (NNW) 13:35:30 145.827
50 SAT 12 Feb 13:28:36 13:31:14 18° 300° (WNW) 13:33:53 437.505
SO-50 12 Feb 13:28:57 13:33:38 48° 236° (SW) 13:38:09 436.795
ITAMSAT 1 12 Feb 13:33:23 13:38:22 48° 65° (ENE) 13:43:23 435.822/435.867
GONETS M04 12 Feb 13:35:11 13:36:27 10° 334° (NNW) 13:37:42
Oscar 19 12 Feb 13:58:50 14:03:26 32° 266° (W) 14:08:03 437.125/150
M-CUBED/EXP-1 PRIME 12 Feb 14:00:58 14:02:44 14° 52° (NE) 14:04:29 437.505
SWISSCUBE 12 Feb 14:01:13 14:05:23 28° 94° (E) 14:09:31 437.505
Cosmos 2504 12 Feb 14:01:36 14:08:08 22° 49° (NE) 14:14:22 435.465 / 435.565
VELOX 1 12 Feb 14:05:17 14:07:55 16° 306° (NW) 14:10:32 145.980
YUBILEINY 12 Feb 14:06:17 14:15:09 68° 74° (ENE) 14:23:56 435.215
AUBIESAT-1 12 Feb 14:08:22 14:10:09 14° 52° (NE) 14:11:54 437.475
DANDE 12 Feb 14:10:31 14:17:11 40° 272° (W) 14:22:24 436.750
Cosmos 2491 12 Feb 14:21:04 14:28:35 34° 82° (E) 14:36:07 435.465 / 435.565
UKube-1 12 Feb 14:21:19 14:23:09 13° 308° (NW) 14:25:01 .
TISAT 1 12 Feb 14:23:19 14:27:21 47° 292° (WNW) 14:31:21 437.305
AISAT 12 Feb 14:23:24 14:24:50 11° 310° (NW) 14:26:17 437.250
SPROUT 12 Feb 14:24:57 14:28:16 22° 300° (WNW) 14:31:35 437.525
AO-7 12 Feb 14:25:23 14:33:34 61° 60° (ENE) 14:41:46 29.400- 29.500
CUBEBUG 1 12 Feb 14:36:09 14:36:49 10° 311° (NW) 14:37:29 437.445
HORYU 2 12 Feb 14:38:33 14:41:46 20° 57° (ENE) 14:44:59 437.375
ITUPSAT 1 12 Feb 14:39:10 14:43:54 52° 100° (E) 14:48:37 437.325
BEESAT 12 Feb 14:45:52 14:50:39 61° 102° (ESE) 14:55:23 436.000
JAS-2 12 Feb 14:50:18 14:56:22 27° 270° (W) 15:02:00 435.910
Gurwin Techsat 1B 12 Feb 14:51:05 14:55:41 29° 267° (W) 15:00:20 435.225
AO-85 12 Feb 15:08:20 15:12:37 23° 4° (N) 15:16:47 145.980
PCSat 12 Feb 15:12:10 15:15:52 18° 356° (N) 15:19:34 145.827
ITAMSAT 1 12 Feb 15:13:24 15:18:02 32° 265° (W) 15:22:43 435.822/435.867
RS-15 12 Feb 15:18:05 15:29:16 50° 344° (NNW) 15:41:00 29.354- 29.394
STARS 12 Feb 15:19:39 15:21:54 14° 87° (E) 15:24:08 437.465
M-CUBED/EXP-1 PRIME 12 Feb 15:33:33 15:37:02 71° 250° (WSW) 15:40:23 437.505
CUTE-I 12 Feb 15:34:37 15:36:27 12° 44° (NE) 15:38:15 437.470
SWISSCUBE 12 Feb 15:38:46 15:43:24 48° 293° (WNW) 15:48:01 437.505
AUBIESAT-1 12 Feb 15:40:54 15:44:22 71° 249° (WSW) 15:47:44 437.475
ISS 12 Feb 15:42:15 15:44:31 18° 145° (SE) 15:46:47 145.825
KKS-1 12 Feb 15:42:35 15:46:43 36° 97° (E) 15:50:47 437.445
Cubesat XI-IV 12 Feb 15:48:03 15:50:49 14° 47° (NE) 15:53:34 437.490
Cosmos 2504 12 Feb 15:54:39 16:03:25 71° 75° (ENE) 16:11:33 435.465 / 435.565
MOZHAYETS 4 12 Feb 15:55:42 15:59:30 24° 92° (E) 16:03:15
YUBILEINY 12 Feb 16:03:41 16:11:27 36° 278° (W) 16:19:12 435.215
O/OREOS (USA 219) 12 Feb 16:04:21 16:08:22 29° 46° (NE) 16:12:22 437.305
HORYU 2 12 Feb 16:13:32 16:17:56 67° 257° (WSW) 16:22:22 437.375
Cosmos 2491 12 Feb 16:16:10 16:24:50 70° 285° (WNW) 16:33:35 435.465 / 435.565
ITUPSAT 1 12 Feb 16:17:28 16:21:31 28° 300° (WNW) 16:25:34 437.325
AO-7 12 Feb 16:18:54 16:26:43 42° 262° (W) 16:34:36 29.400- 29.500
BEESAT 3 12 Feb 16:19:08 16:21:08 14° 113° (ESE) 16:23:09 437.485
LilacSat-2 12 Feb 16:23:04 16:24:33 12° 56° (NE) 16:26:03 437.200
BEESAT 12 Feb 16:24:16 16:28:06 24° 302° (WNW) 16:31:57 436.000
